Zurück zum Katalog

STARLINK-3553

AktivKommunikationVLEO
NORAD 51866·PAYLOAD·🇺🇸 United States

Gestartet Mar 3, 2022 von Cape Canaveral Space Force Station

Loading…

Nächste Überflüge (nächste 24 Stunden)

TLE

AktuellSource: CelesTrak SupGP

Epoche: Sep 15, 2026, 01:22 UTC

1 51866C 22022Q   26258.05743056 -.00029624  00000+0 -89886-3 0  2581
2 51866  53.1580 229.4114 0001343  92.2618  19.4046 15.33565427    18

Verfolge STARLINK-3553 in Echtzeit mit AllMySat

Download on the App Store